sat.trackr.live / text

‹ back to catalog

FLOCK 4H-4

NORAD 66707 · 2025-276AT

PAYLOAD ACTIVE UNKNOWN

§ Identity

Operator
Country
US
Launch date
2025-11-28
Launch site
AFWTR
Launch vehicle
Mass (kg)
RCS (m²)

Purposes: earth_obs

External: N2YO · Heavens-Above · Gunter

§ Orbital elements

Epoch: 2026-05-24T22:04:43.222944Z

Period
94.77 min
Inclination
97.4228°
Eccentricity
0.0006308
Mean motion
15.19397757 rev/d
Perigee alt
503.3 km
Apogee alt
512.0 km
Semi-major
6,885.8 km
B*
2.4952e-4
RAAN
218.8507°
Arg perigee
88.5537°
Mean anomaly
271.6421°
Rev number
2,688

§ Raw data

FLOCK 4H-41 66707U 25276AT  26144.91994471  .00005216  00000+0  24952-3 0  99972 66707  97.4228 218.8507 0006308  88.5537 271.6421 15.19397757 26885

JSON: /api/v1/satellites/66707 · /tle

For live sub-satellite position, see the globe view (requires WebGL).

§ Visibility from observer

Set your observer location to see the next 7 days of passes ≥ 10°. The values pass through the URL so the page stays shareable.

No JS? Fill the form by hand. The geolocation button needs JavaScript.